VA3PPY Weather Reports


time (UTC)temp
F
wind
direction
speed
knots
gust
knots
rain 1hr
in
rain 24hr
in
rain mn
in
humidity
%
barometer
mb
20260905234500 67 337 1.7 9.6 0.00 0.00 0.00 79 1014.5
20260905233002 68 326 1.7 7.8 0.00 0.00 0.00 77 1014.5
20260905231501 68 5 2.6 8.7 0.00 0.00 0.00 75 1014.6
20260905230004 68 262 2.6 7.0 0.00 0.00 0.00 76 1014.7
20260905224503 68 326 2.6 8.7 0.00 0.00 0.00 74 1014.5
20260905223003 69 335 1.7 9.6 0.00 0.00 0.00 73 1014.4
20260905221501 69 335 2.6 8.7 0.00 0.00 0.00 70 1014.5
20260905220004 70 316 2.6 9.6 0.00 0.00 0.00 68 1014.4
20260905214502 70 360 1.7 7.8 0.00 0.00 0.00 70 1014.4
20260905213004 71 11 1.7 6.1 0.00 0.00 0.00 71 1014.3
20260905211503 71 1 2.6 9.6 0.00 0.00 0.00 72 1014.4
20260905210004 71 24 3.5 8.7 0.00 0.00 0.00 73 1014.3
20260905204502 72 333 1.7 9.6 0.00 0.00 0.00 73 1014.2
20260905203003 72 355 3.5 8.7 0.00 0.00 0.00 73 1014.1
20260905201503 73 311 1.7 7.0 0.00 0.00 0.00 75 1014.2
20260905200004 73 326 2.6 7.0 0.00 0.00 0.00 76 1014.3
20260905194503 73 311 3.5 9.6 0.00 0.00 0.00 77 1014.2
20260905193002 74 359 2.6 7.0 0.00 0.00 0.00 78 1014.3
20260905191502 74 272 1.7 8.7 0.00 0.00 0.00 78 1014.2
20260905190004 74 301 3.5 0.0 2.36 0.00 0.00 78 1014.4
20260905184507 74 282 1.7 7.0 0.00 0.00 0.00 76 1014.5
20260905183003 74 286 0.0 5.2 0.00 0.00 0.00 76 1014.6
20260905181502 74 237 0.9 4.3 0.00 0.00 0.00 78 1014.7
20260905180007 74 314 0.0 5.2 0.00 0.00 0.00 78 1014.6
20260905174503 74 323 2.6 7.0 0.00 0.00 0.00 75 1014.4
20260905173004 74 316 0.9 7.8 0.00 0.00 0.00 77 1014.4
20260905171503 74 328 1.7 7.8 0.00 0.00 0.00 76 1014.5
20260905170007 74 307 2.6 7.0 0.00 0.00 0.00 75 1014.5
20260905164503 74 335 1.7 6.1 0.00 0.00 0.00 75 1014.4
20260905163003 73 307 0.9 4.3 0.00 0.00 0.00 75 1014.5
20260905161503 72 298 0.9 6.1 0.00 0.00 0.00 77 1014.5
20260905160011 72 274 0.9 6.1 0.00 0.00 0.00 78 1014.5
20260905154503 71 317 1.7 6.1 0.00 0.00 0.00 78 1014.5
20260905153003 71 335 1.7 5.2 0.00 0.00 0.00 79 1014.6
20260905151506 71 319 2.6 7.0 0.00 0.00 0.00 78 1014.4
20260905150004 71 307 0.9 4.3 0.00 0.00 0.00 79 1014.4
20260905144511 71 44 0.0 2.6 0.00 0.00 0.00 79 1014.3
20260905143004 71 44 0.0 2.6 0.00 0.00 0.00 78 1014.3
20260905141504 70 44 0.0 3.5 0.00 0.00 0.00 81 1014.2
20260905140005 69 44 0.0 3.5 0.00 0.00 0.00 82 1014.2
20260905134504 68 43 0.0 0.0 0.00 0.01 0.00 83 1014.3
20260905133004 67 43 0.0 0.0 0.00 0.01 0.00 84 1014.4
20260905131504 66 43 0.0 0.0 0.00 0.01 0.00 87 1014.3
20260905130004 65 43 0.0 0.0 0.00 0.01 0.00 89 1014.4
20260905124507 64 43 0.0 0.0 0.00 0.01 0.00 92 1014.4
20260905123004 63 43 0.0 0.0 0.00 0.01 0.00 94 1014.4
20260905121504 62 43 0.0 0.0 0.00 0.01 0.00 95 1014.3
20260905120004 61 43 0.0 0.0 0.00 0.01 0.00 95 1014.2
20260905114503 61 43 0.0 0.0 0.00 0.01 0.00 95 1014.3
20260905113004 60 43 0.0 0.0 0.00 0.01 0.00 95 1014.1
20260905111506 60 43 0.0 0.0 0.00 0.01 0.00 94 1014.0
20260905110004 61 43 0.0 0.0 0.00 0.01 0.00 94 1014.0
20260905104504 61 43 0.0 0.0 0.00 0.01 0.00 94 1013.8
20260905103004 61 43 0.0 0.0 0.00 0.01 0.00 94 1013.7
20260905101504 61 43 0.0 0.0 0.00 0.01 0.00 94 1013.5
20260905100005 62 43 0.0 0.0 0.00 0.01 0.00 93 1013.4
20260905094504 63 43 0.0 0.0 0.00 0.01 0.00 93 1013.6
20260905093004 63 43 0.0 0.0 0.00 0.01 0.00 93 1013.4
20260905091504 63 43 0.0 0.0 0.00 0.01 0.00 93 1013.3
20260905090004 64 43 0.0 0.0 0.00 0.01 0.00 93 1013.2
20260905084504 64 43 0.0 0.0 0.00 0.01 0.00 93 1013.5
20260905083004 64 43 0.0 0.0 0.00 0.01 0.00 93 1013.5
20260905081505 64 43 0.0 0.0 0.00 0.01 0.00 93 1013.2
20260905080005 64 43 0.0 0.0 0.00 0.01 0.00 93 1013.1
20260905074505 64 43 0.0 0.0 0.00 0.01 0.00 93 1013.0
20260905073006 64 43 0.0 0.0 0.00 0.01 0.00 94 1012.9
20260905071505 64 43 0.0 0.0 0.00 0.01 0.00 94 1012.8
20260905070012 65 43 0.0 0.0 0.00 0.01 0.00 94 1012.9
20260905064505 65 43 0.0 0.0 0.00 0.01 0.00 94 1013.0
20260905063005 65 43 0.0 0.0 0.00 0.01 0.00 94 1013.1
20260905061506 65 43 0.0 0.0 0.00 0.01 0.00 93 1013.1
20260905060005 65 43 0.0 0.0 0.00 0.01 0.00 93 1013.2
20260905054505 65 43 0.0 0.0 0.00 0.01 0.00 93 1013.2
20260905053005 65 43 0.0 0.0 0.00 0.01 0.00 92 1013.2
20260905051515 66 43 0.0 0.0 0.00 0.01 0.00 92 1013.3
20260905050006 65 43 0.0 0.0 0.00 0.01 0.00 91 1013.5
20260905044508 65 43 0.0 0.0 0.00 0.01 0.00 91 1013.3
20260905043005 65 43 0.0 0.0 0.00 0.01 0.00 91 1013.4
20260905041506 66 43 0.0 0.0 0.00 0.01 0.00 92 1013.4
20260905040007 66 43 0.0 0.0 0.00 0.01 0.00 93 1013.4
20260905034510 67 43 0.0 0.0 0.00 0.01 0.01 94 1013.4
20260905033007 67 43 0.0 0.0 0.00 0.01 0.01 94 1013.5
20260905031507 68 43 0.0 0.0 0.00 0.01 0.01 94 1013.5
20260905030007 68 43 0.0 0.0 0.00 0.01 0.01 94 1013.6
20260905024508 67 43 0.0 0.0 0.00 0.01 0.01 94 1013.9
20260905023006 66 43 0.0 0.0 0.00 0.01 0.01 94 1014.0
20260905021505 66 43 0.0 0.0 0.00 0.01 0.01 93 1014.0
20260905020009 66 43 0.0 0.0 0.00 0.01 0.01 93 1013.8
20260905014507 66 43 0.0 0.0 0.00 0.01 0.01 92 1013.7
20260905013010 66 43 0.0 0.0 0.00 0.01 0.01 92 1013.6
20260905011513 66 43 0.0 0.0 0.00 0.01 0.01 91 1013.4
20260905010007 67 43 0.0 0.0 0.00 0.01 0.01 91 1013.6
20260905004506 67 43 0.0 0.0 0.00 0.01 0.01 90 1013.3
20260905003010 68 43 0.0 0.0 0.00 0.01 0.01 89 1013.0
20260905001510 68 43 0.0 0.0 0.00 0.01 0.01 89 1012.9
20260905000007 69 43 0.0 0.0 0.00 0.01 0.01 89 1012.9